Weather reports worldwide

Advertisment
Brindisi, Italy (16320): temperature & dewpoint: 12.07.2019 07:00:00 - 18.07.2019 07:00:00 (CEST)Brindisi, Italy (16320): wind speed: 12.07.2019 07:00:00 - 18.07.2019 07:00:00 (CEST)Brindisi, Italy (16320): wind direction: 12.07.2019 07:00:00 - 18.07.2019 07:00:00 (CEST)Brindisi, Italy (16320): reduced air pressure: 12.07.2019 07:00:00 - 18.07.2019 07:00:00 (CEST)Brindisi, Italy (16320): visibility: 12.07.2019 07:00:00 - 18.07.2019 07:00:00 (CEST)Brindisi, Italy (16320): precipitation: 12.07.2019 07:00:00 - 18.07.2019 07:00:00 (CEST)
Date & Time tt [°C] td [°C] ff [km/h] ff [kn] dd ppp [hPa] vv [km] rr [mm]
18.07.2019 07:00:00 19,0 16,0 13 7 WSW - 10 -
18.07.2019 06:00:00 18,0 15,0 13 7 WSW - 10 -
18.07.2019 05:00:00 17,7 15,5 15 8 WSW 1011,1 10 0,0
18.07.2019 04:00:00 18,0 16,0 11 6 WSW - 10 -
18.07.2019 03:00:00 18,0 16,0 11 6 WSW - 10 -
18.07.2019 02:00:00 18,8 15,7 11 6 WSW 1011,5 10 -
18.07.2019 01:00:00 20,0 16,0 8 4 W - 10 -
18.07.2019 00:00:00 23,0 15,0 9 5 NNW - 10 -
17.07.2019 23:00:00 23,2 15,9 13 7 NNW 1011,4 10 0,0
17.07.2019 22:00:00 24,0 16,0 15 8 NNW - 10 -
17.07.2019 21:00:00 24,0 15,0 13 7 NW - 10 -
17.07.2019 20:00:00 24,2 14,2 15 8 NW 1010,9 10 -
17.07.2019 19:00:00 25,0 15,0 15 8 NNW - 10 -
17.07.2019 18:00:00 26,0 14,0 16 9 NNW - 10 -
17.07.2019 17:00:00 26,3 15,3 18 10 NW 1011,3 10 0,0
17.07.2019 16:00:00 26,0 17,0 21 11 NNW - 10 -
17.07.2019 15:00:00 26,0 16,0 18 10 NNW - 10 -
17.07.2019 14:00:00 26,7 17,3 18 10 NNW 1011,5 10 -
17.07.2019 13:00:00 26,0 16,0 18 10 NNW - 10 -
17.07.2019 12:00:00 26,0 17,0 18 10 N - 10 -
17.07.2019 11:00:00 26,1 16,7 22 12 N 1011,3 10 0,0
17.07.2019 10:00:00 26,0 14,0 28 15 NE - 10 -
17.07.2019 09:00:00 26,0 14,0 31 17 NNE - 10 -
17.07.2019 08:00:00 25,2 13,9 28 15 NNE 1010,2 10 -
17.07.2019 07:00:00 25,0 14,0 29 16 NNE - 10 -
17.07.2019 06:00:00 24,0 13,0 29 16 NNE - 10 -
17.07.2019 05:00:00 24,0 15,4 28 15 NNE 1009,4 10 0,0
17.07.2019 04:00:00 24,0 16,0 29 16 NNE - 10 -
17.07.2019 03:00:00 24,0 17,0 24 13 N - 10 -
17.07.2019 02:00:00 23,8 18,7 18 10 NNW 1009,4 10 -
17.07.2019 01:00:00 24,0 18,0 21 11 NNW - 10 -
17.07.2019 00:00:00 23,0 18,0 11 6 NNW - 10 -
16.07.2019 23:00:00 22,9 16,2 16 9 N 1009,7 10 0,0
16.07.2019 22:00:00 23,0 16,0 22 12 NNE - 10 -
16.07.2019 21:00:00 22,0 16,0 28 15 NNE - 10 -
16.07.2019 20:00:00 21,7 16,7 24 13 N 1008,5 10 -
16.07.2019 19:00:00 21,0 17,0 22 12 NNE - 10 -
16.07.2019 18:00:00 21,0 17,0 21 11 NE - 10 -
16.07.2019 17:00:00 20,9 18,5 22 12 NE 1007,9 10 0,0
16.07.2019 16:00:00 21,0 18,0 26 14 NNE - 10 -
16.07.2019 15:00:00 20,0 18,0 11 6 NNW - 10 -
16.07.2019 14:00:00 19,9 18,5 13 7 WNW 1007,2 6 -
16.07.2019 13:00:00 20,0 18,0 11 6 NW - 5 -
16.07.2019 12:00:00 21,0 18,0 5 3 N - 10 -
16.07.2019 11:00:00 19,9 18,0 2 1 - 1006,7 8 0,0
16.07.2019 10:00:00 20,0 18,0 8 4 S - 5 -
16.07.2019 09:00:00 19,0 17,0 16 9 W - 8 -
16.07.2019 08:00:00 19,6 17,5 18 10 W 1007,2 5 -
16.07.2019 07:00:00 21,0 19,0 9 5 S - 10 -
16.07.2019 06:00:00 24,0 18,0 11 6 ENE - 10 -
16.07.2019 05:00:00 23,6 17,9 16 9 NNE 1006,2 10 0,0
16.07.2019 04:00:00 24,0 19,0 13 7 NE - 10 -
16.07.2019 03:00:00 24,0 19,0 15 8 NE - 10 -
16.07.2019 02:00:00 23,9 18,4 13 7 NNE 1007,3 - -
16.07.2019 01:00:00 - - - - - - - -
16.07.2019 00:00:00 23,0 18,0 4 2 - - 10 -
15.07.2019 23:00:00 23,9 18,0 5 3 ENE 1008,4 10 0,0
15.07.2019 22:00:00 24,0 16,0 5 3 ESE - 10 -
15.07.2019 21:00:00 25,0 17,0 5 3 SE - 10 -
15.07.2019 20:00:00 25,0 16,1 5 3 E 1007,6 10 -
15.07.2019 19:00:00 26,0 17,0 9 5 NE - 10 -
15.07.2019 18:00:00 26,0 17,0 9 5 ENE - 10 -
15.07.2019 17:00:00 25,7 18,4 11 6 NE 1007,5 10 0,0
15.07.2019 16:00:00 25,0 19,0 13 7 NNE - 10 -
15.07.2019 15:00:00 27,0 17,0 16 9 N - 10 -
15.07.2019 14:00:00 26,3 16,7 15 8 N 1008,0 10 -
15.07.2019 13:00:00 25,0 18,0 15 8 NNW - 10 -
15.07.2019 12:00:00 26,0 19,0 16 9 NNW - 10 -
15.07.2019 11:00:00 24,6 19,0 21 11 NW 1008,1 10 0,0
15.07.2019 10:00:00 25,0 18,0 21 11 NW - 10 -
15.07.2019 09:00:00 24,0 18,0 21 11 NW - 10 -
15.07.2019 08:00:00 23,1 17,8 21 11 WNW 1008,0 10 -
15.07.2019 07:00:00 21,0 17,0 13 7 W - 10 -
15.07.2019 06:00:00 20,0 17,0 15 8 W - 10 -
15.07.2019 05:00:00 20,7 17,1 13 7 W 1007,0 10 0,0
15.07.2019 04:00:00 21,0 18,0 11 6 W - 10 -
15.07.2019 03:00:00 - - - - - - - -
15.07.2019 02:00:00 21,6 16,6 11 6 NW 1009,3 10 -
15.07.2019 01:00:00 24,0 17,0 13 7 NNW - 10 -
15.07.2019 00:00:00 24,0 15,0 15 8 NNW - 10 -
14.07.2019 23:00:00 23,7 15,8 16 9 NNW 1009,6 10 0,0
14.07.2019 22:00:00 24,0 15,0 18 10 NNW - 10 -
14.07.2019 21:00:00 24,0 15,0 21 11 NW - 10 -
14.07.2019 20:00:00 24,1 15,1 22 12 NW 1009,0 10 -
14.07.2019 19:00:00 25,0 15,0 24 13 NNW - 10 -
14.07.2019 18:00:00 25,0 15,0 26 14 NNW - 10 -
14.07.2019 17:00:00 25,3 13,9 26 14 NNW 1009,4 10 0,0
14.07.2019 16:00:00 26,0 14,0 29 16 NNW - 10 -
14.07.2019 15:00:00 26,0 14,0 28 15 NNW - 10 -
14.07.2019 14:00:00 25,7 15,3 28 15 NNW 1009,5 10 -
14.07.2019 13:00:00 26,0 15,0 28 15 NW - 10 -
14.07.2019 12:00:00 25,0 15,0 26 14 NNW - 10 -
14.07.2019 11:00:00 25,4 15,4 26 14 NNW 1008,9 10 0,0
14.07.2019 10:00:00 25,0 16,0 24 13 NNW - 10 -
14.07.2019 09:00:00 25,0 16,0 21 11 NNW - 10 -
14.07.2019 08:00:00 24,1 18,5 24 13 NNW 1007,7 10 -
14.07.2019 07:00:00 23,0 17,0 24 13 NNW - 10 -
14.07.2019 06:00:00 23,0 18,0 21 11 NNW - 10 -
14.07.2019 05:00:00 23,3 18,0 18 10 NNW 1007,3 10 0,0
14.07.2019 04:00:00 23,0 19,0 28 15 NNW - 10 -
14.07.2019 03:00:00 24,0 20,0 22 12 NNW - 10 -
14.07.2019 02:00:00 22,2 20,1 21 11 W 1007,6 10 -
14.07.2019 01:00:00 22,0 20,0 13 7 W - 10 -
14.07.2019 00:00:00 22,0 20,0 15 8 WNW - 10 -
13.07.2019 23:00:00 21,5 20,0 8 4 W 1008,1 10 0,0
13.07.2019 22:00:00 21,0 20,0 9 5 WNW - 10 -
13.07.2019 21:00:00 22,0 20,0 9 5 S - 8 -
13.07.2019 20:00:00 22,2 20,5 8 4 SE 1006,8 10 -
13.07.2019 19:00:00 22,0 20,0 11 6 NW - 8 -
13.07.2019 18:00:00 22,0 20,0 15 8 S - 8 -
13.07.2019 17:00:00 24,6 21,2 13 7 NNW 1008,0 7 0,0
13.07.2019 16:00:00 26,0 21,0 13 7 SE - 8 -
13.07.2019 15:00:00 27,0 19,0 22 12 ESE - 10 -
13.07.2019 14:00:00 27,0 19,3 22 12 ESE 1008,9 10 -
13.07.2019 13:00:00 28,0 18,0 13 7 - - 10 -
13.07.2019 12:00:00 28,0 18,0 13 7 SSW - 10 -
13.07.2019 11:00:00 27,0 17,6 11 6 SSW 1010,3 10 0,0
13.07.2019 10:00:00 26,0 17,0 13 7 SSW - 10 -
13.07.2019 09:00:00 25,0 17,0 13 7 S - 10 -
13.07.2019 08:00:00 23,8 19,2 13 7 S 1011,0 10 -
13.07.2019 07:00:00 23,0 18,0 8 4 S - 10 -
13.07.2019 06:00:00 21,0 18,0 4 2 SSW - 10 -
13.07.2019 05:00:00 21,2 17,9 5 3 WSW 1010,9 10 0,0
13.07.2019 04:00:00 22,0 18,0 5 3 SSW - 10 -
13.07.2019 03:00:00 23,0 17,0 5 3 SSW - 10 -
13.07.2019 02:00:00 21,9 17,9 5 3 WSW 1011,8 10 -
13.07.2019 01:00:00 21,0 18,0 11 6 WSW - 10 -
13.07.2019 00:00:00 21,0 18,0 9 5 SW - 10 -
12.07.2019 23:00:00 21,1 17,8 16 9 SW 1012,3 10 0,0
12.07.2019 22:00:00 22,0 18,0 15 8 SW - 10 -
12.07.2019 21:00:00 23,0 18,0 15 8 SW - 10 -
12.07.2019 20:00:00 22,6 18,0 13 7 SSW 1012,2 9 -
12.07.2019 19:00:00 22,0 17,0 13 7 NW - 8 -
12.07.2019 18:00:00 26,0 16,0 9 5 NE - 10 -
12.07.2019 17:00:00 25,9 15,7 9 5 ENE 1011,8 10 0,0
12.07.2019 16:00:00 26,0 15,0 11 6 NE - 10 -
12.07.2019 15:00:00 27,0 16,0 13 7 NNE - 10 -
12.07.2019 14:00:00 26,7 15,5 16 9 N 1012,5 10 -
12.07.2019 13:00:00 27,0 16,0 15 8 N - 10 -
12.07.2019 12:00:00 26,0 17,0 15 8 NNW - 10 -
12.07.2019 11:00:00 26,0 16,7 16 9 NNW 1012,9 10 0,0
12.07.2019 10:00:00 25,0 17,0 16 9 NNW - 10 -
12.07.2019 09:00:00 25,0 17,0 16 9 NW - 10 -
12.07.2019 08:00:00 24,4 17,1 16 9 NW 1012,4 10 -
12.07.2019 07:00:00 23,0 17,0 13 7 NW - 10 -

tt = temperature
td = dewpoint
ff = wind speed
dd = wind direction
ppp = reduced air pressure
vv = visibility
rr = precipitation

Next stations